Location: Brodeslavy
(49.9527°N, 13.5567°E)
Time: 20:00:54
(UTC+00:00)

Cosmos 1844 Rocket - Pass Details

Date: 17 June 2025
Orbit: 822 x 844 km, 71.0° (Epoch: 16 July)

Event Time Altitude Azimuth Distance (km) Brightness Sun altitude
Exits shadow 22:01:44 18° 197° (SSW) 1,969 4.1 -15.2°
Maximum altitude 22:06:02 73° 115° (ESE) 883 2.7 -15.4°
Drops below altitude 10° 22:11:42 10° 32° (NNE) 2,476 5.8 -15.6°
Sets 22:14:10 0° 31° (NNE) 3,415 6.6 -15.7°
